FLOCK 3P-68

Last updated on Wed Feb 14 2018 16:20:30 GMT+0000 (Greenwich Mean Time)

1 42003U 17008BH 18044.89120781 .00001633 00000-0 70515-4 0 9993 2 42003 97.4660 110.4709 0009989 85.1352 275.1025 15.23912150 54970
UTC large
Height (km)
Speed (km/s)
/
Latitude / Longitude
Inclination (degrees)
Orbital Period (minutes)
Azimuth
Elevation
Range (km)
Doppler Factor

Next 0 passes for location: London (51.5072 / 0.1276)

Sorry there are no passes over London.